{"data":{"norad_id":57936,"intl_designator":"2023-148B","name":"STARLINK-30716","alt_names":[],"object_type":"PAYLOAD","status":"ACTIVE","operator":null,"country":"US","launch_date":"2023-09-25","launch_site_code":"AFWTR","launch_vehicle":null,"mission":null,"orbit_class":"UNKNOWN","rcs_meters":null,"size_class":null,"mass_kg":null,"dimensions":null,"purposes":["comms"],"wikipedia_slug":null,"has_3d_model":false,"image_url":null,"decayed_at":null,"tle_current":{"epoch":"2026-05-25T01:43:42.267072Z","epoch_age_seconds":64976,"freshness":"FRESH","line1":"1 57936U 23148B   26145.07201698  .00001600  00000+0  66147-4 0  9993","line2":"2 57936  53.1617  29.6388 0001377  97.2649 262.8509 15.30193134150116","mean_motion":15.30193134,"eccentricity":0.0001377,"inclination_deg":53.1617,"raan_deg":29.6388,"arg_perigee_deg":97.2649,"mean_anomaly_deg":262.8509,"bstar":6.6147e-5,"rev_number":15011,"period_min":94.105767958569,"perigee_km":474.29186073147,"apogee_km":476.17927953728,"semimajor_km":6853.3725701344,"source":"CELESTRAK","updated_at":"2026-05-25T13:38:18.460300Z"}}}